[[{"header":{"parameterUnit":"m.s-1","parameterCategory":1,"la1":30.2992,"la2":30.254,"lo1":-89.0895,"lo2":-89.0443,"dy":0.0025,"dx":0.0025,"nx":19,"ny":19,"refTime":"2026-03-30T09:00:00:Z","depth":0,"parameterNumber":2,"parameterNumberName":"U-component_of_WINDS"},"data":[0,0,0,-3.1478,-3.1481,-3.165,-3.1651,-3.1871,-3.1873,0,0,0,0,0,0,0,0,0,0,0,-3.1427,-3.1429,-3.1477,-3.1482,-3.165,-3.1651,-3.187,-3.1873,0,0,0,0,0,0,0,0,0,0,0,-3.1427,-3.1428,-3.143,-3.1482,-3.165,-3.1651,-3.187,-3.1742,0,0,0,0,0,0,0,0,0,0,-3.1577,-3.153,-3.1428,-3.143,-3.1483,-3.165,-3.1651,-3.1736,-3.175,-3.1795,0,-3.1833,0,-3.1856,-3.1887,-3.1888,0,0,0,-3.1483,-3.1518,-3.1563,-3.143,-3.1485,-3.165,-3.1574,-3.1743,-3.176,-3.1814,-3.1836,-3.1844,-3.186,-3.1889,-3.189,-3.2141,-3.2142,0,0,-3.1473,-3.1458,-3.1552,-3.1574,-3.1545,-3.1569,-3.158,-3.1753,-3.1777,-3.1837,-3.1849,-3.1863,-3.189,-3.1892,-3.214,-3.2141,0,0,0,-3.1446,-3.1452,-3.1493,-3.1565,-3.1595,-3.1574,-3.1586,-3.177,-3.1784,-3.1852,-3.1866,-3.1892,-3.1894,-3.2139,-3.214,-3.218,0,0,0,-3.144,-3.1436,-3.1489,-3.1481,-3.1592,-3.1684,-3.1599,-3.1772,-3.1792,-3.1865,-3.1892,-3.1896,-3.2138,-3.214,-3.2176,-3.2202,0,0,0,-3.1417,-3.1433,-3.1457,-3.148,-3.1552,-3.1681,-3.1706,-3.1777,-3.1801,-3.1888,-3.1897,-3.2137,-3.2139,-3.2173,-3.2196,-3.2262,0,0,0,-3.1388,-3.1491,-3.1457,-3.1579,-3.155,-3.1704,-3.1705,-3.1821,-3.1901,-3.1893,-3.2138,-3.214,-3.2172,-3.2193,-3.2259,-3.2315,-3.2337,0,0,-3.151,-3.1506,-3.1579,-3.1553,-3.1708,-3.1679,-3.1842,-3.1931,-3.1954,-3.2078,-3.2084,-3.2178,-3.2196,-3.2262,-3.2467,-3.2484,0,0,0,-3.1613,-3.1665,-3.1709,-3.1783,-3.1851,-3.1913,-3.1977,-3.201,-3.2116,-3.2014,-3.222,-3.2232,-3.2271,-3.2299,-3.2313,-3.2348,-3.2153,-3.2152,-3.2152,-3.1765,-3.1787,-3.191,-3.1952,-3.2024,-3.2089,-3.215,-3.2206,-3.221,-3.2258,-3.2295,-3.2416,-3.2448,-3.2459,-3.2495,-3.2327,-3.2327,-3.2327,-3.2328,-3.1947,-3.2024,-3.2024,-3.2142,-3.2166,-3.2267,-3.2335,-3.2334,-3.2432,-3.2391,-3.2427,-3.2378,-3.2477,-3.251,-3.2331,-3.233,-3.233,-3.233,-3.2329,-3.2049,-3.2089,-3.2126,-3.2234,-3.2316,-3.2357,-3.2451,-3.247,-3.249,-3.2525,-3.2566,-3.2565,-3.2567,-3.2543,-3.2544,-3.2544,-3.2544,-3.2545,-3.2545,-3.2139,-3.2179,-3.2254,-3.2335,-3.2385,-3.2453,-3.252,-3.257,-3.2631,-3.2638,-3.2639,-3.2637,-3.2482,-3.2443,-3.2552,-3.255,-3.255,-3.2549,-3.2549,-3.2314,-3.2277,-3.2393,-3.2442,-3.2539,-3.2619,-3.2642,-3.2743,-3.2788,-3.2834,-3.2825,-3.2707,-3.2705,-3.2693,-3.2661,-3.282,-3.282,-3.282,-3.282,-3.2399,-3.2399,-3.2521,-3.2599,-3.2678,-3.2711,-3.2843,-3.2897,-3.2947,-3.2976,-3.2956,-3.2915,-3.2902,-3.2907,-3.2891,-3.2861,-3.3067,-3.3067,-3.3068,-3.2507,-3.2516,-3.2623,-3.2669,-3.2746,-3.2812,-3.2937,-3.3029,-3.3079,-3.3078,-3.3,-3.2989,-3.2922,-3.29,-3.2896,-3.2871,-3.2815,0,0]},{"header":{"parameterUnit":"m.s-1","parameterCategory":1,"la1":30.2992,"la2":30.254,"lo1":-89.0895,"lo2":-89.0443,"dy":0.0025,"dx":0.0025,"nx":19,"ny":19,"refTime":"2026-03-30T09:00:00:Z","depth":0,"parameterNumber":3,"parameterNumberName":"V-component_of_WINDS"},"data":[0,0,0,1.7974,1.7973,1.7941,1.794,1.7905,1.7905,0,0,0,0,0,0,0,0,0,0,0,1.7989,1.7989,1.7974,1.7973,1.7941,1.794,1.7905,1.7905,0,0,0,0,0,0,0,0,0,0,0,1.7989,1.7989,1.7989,1.7973,1.7941,1.794,1.7905,1.7927,0,0,0,0,0,0,0,0,0,0,1.7957,1.7977,1.7989,1.7989,1.7973,1.7941,1.794,1.7928,1.7926,1.7923,0,1.7924,0,1.7914,1.7903,1.7903,0,0,0,1.7968,1.7979,1.7966,1.7989,1.7973,1.7941,1.7954,1.7927,1.7924,1.792,1.7923,1.7922,1.7914,1.7903,1.7903,1.7909,1.7909,0,0,1.797,1.7985,1.7968,1.7964,1.7972,1.7955,1.7953,1.7925,1.7929,1.7923,1.7921,1.7913,1.7903,1.7903,1.7908,1.7909,0,0,0,1.7979,1.7987,1.7974,1.7966,1.796,1.7954,1.7952,1.793,1.7924,1.792,1.7913,1.7903,1.7902,1.7908,1.7908,1.7937,0,0,0,1.7979,1.7992,1.7975,1.7984,1.7961,1.7945,1.7958,1.7926,1.7923,1.7913,1.7903,1.7902,1.7908,1.7908,1.7935,1.7947,0,0,0,1.7989,1.7993,1.799,1.7985,1.7972,1.7945,1.7938,1.7925,1.7918,1.7903,1.7902,1.7908,1.7908,1.7934,1.7945,1.7954,0,0,0,1.8003,1.8014,1.7991,1.8,1.7972,1.7963,1.7938,1.793,1.792,1.7902,1.7908,1.7908,1.7934,1.7944,1.7952,1.7964,1.797,0,0,1.8025,1.8017,1.8022,1.8,1.8,1.7967,1.797,1.7945,1.7929,1.7916,1.7916,1.7936,1.7945,1.7953,1.8,1.8005,0,0,0,1.8034,1.8037,1.8034,1.8026,1.801,1.7996,1.797,1.7961,1.795,1.7926,1.7941,1.7945,1.795,1.7955,1.7959,1.7962,1.7911,1.7911,1.7911,1.8086,1.8067,1.8073,1.8049,1.8042,1.8016,1.8009,1.7992,1.7972,1.7976,1.7972,1.8003,1.8009,1.8012,1.8016,1.7976,1.7977,1.7977,1.7977,1.8117,1.8119,1.8095,1.8092,1.8071,1.8067,1.8043,1.8029,1.8022,1.8004,1.8007,1.7989,1.8019,1.8021,1.7979,1.7978,1.7978,1.7978,1.7978,1.815,1.8147,1.8138,1.8126,1.8119,1.8094,1.809,1.807,1.805,1.8053,1.8047,1.8047,1.8044,1.8052,1.8052,1.8052,1.8052,1.8052,1.8052,1.8187,1.8176,1.8175,1.816,1.8153,1.8141,1.8116,1.8108,1.8094,1.808,1.808,1.806,1.8026,1.8018,1.8054,1.8054,1.8054,1.8053,1.8053,1.8226,1.8215,1.8214,1.8208,1.8188,1.8182,1.8158,1.8144,1.8134,1.8132,1.8112,1.809,1.808,1.8076,1.8069,1.8117,1.8117,1.8117,1.8117,1.8254,1.8248,1.8243,1.8234,1.8223,1.8201,1.82,1.818,1.8157,1.815,1.8141,1.813,1.8127,1.8118,1.8114,1.8107,1.8163,1.8163,1.8163,1.8277,1.8269,1.8272,1.8252,1.8235,1.8221,1.822,1.8209,1.8181,1.8164,1.8144,1.8142,1.8125,1.812,1.8102,1.8096,1.8083,0,0]}]]